EW1417 Weather Reports


time (UTC)temp
C
wind
direction
speed
KPH
gust
KPH
rain 1hr
cm
rain 24hr
cm
rain mn
cm
humidity
%
barometer
mb
20260509101550 10 360 20.9 32.2 0.00 0.00 0.00 85 999.0
20260509100100 10 360 17.7 32.2 0.00 0.00 0.00 84 999.1
20260509100002 10 360 17.7 32.2 0.00 0.00 0.00 84 999.1
20260509094542 10 360 22.5 37.0 0.00 0.00 0.00 83 999.2
20260509093020 10 360 19.3 41.8 0.00 0.00 0.00 81 999.3
20260509091629 11 360 24.1 40.2 0.00 0.00 0.00 80 999.5
20260509090018 11 360 20.9 33.8 0.00 0.00 0.00 79 999.7
20260509084555 11 360 20.9 32.2 0.00 0.00 0.00 77 999.7
20260509083040 11 360 17.7 29.0 0.00 0.00 0.00 75 999.8
20260509081516 11 360 20.9 30.6 0.00 0.00 0.00 74 1000.1
20260509080050 11 360 19.3 33.8 0.00 0.00 0.00 72 1000.2
20260509074516 11 360 22.5 37.0 0.00 0.00 0.00 72 1000.3
20260509073126 11 360 19.3 37.0 0.00 0.00 0.00 72 1000.6
20260509071532 12 360 22.5 35.4 0.00 0.00 0.00 68 1001.1
20260509070054 13 360 17.7 30.6 0.00 0.00 0.00 65 1001.2
20260509064530 13 360 16.1 25.7 0.00 0.00 0.00 63 1001.8
20260509063012 13 360 14.5 24.1 0.00 0.00 0.00 60 1002.2
20260509061550 12 360 6.4 12.9 0.00 0.00 0.00 53 1002.3
20260509060013 12 360 9.7 17.7 0.00 0.00 0.00 51 1002.6
20260509054608 12 360 6.4 14.5 0.00 0.00 0.00 49 1002.8
20260509053031 12 360 8.0 14.5 0.00 0.00 0.00 48 1002.9
20260509051508 12 360 9.7 16.1 0.00 0.00 0.00 48 1003.2
20260509050027 12 360 6.4 16.1 0.00 0.00 0.00 45 1003.3
20260509044601 12 360 8.0 19.3 0.00 0.00 0.00 41 1003.4
20260509044503 12 360 6.4 19.3 0.00 0.00 0.00 41 1003.4
20260509043046 12 360 8.0 14.5 0.00 0.00 0.00 37 1003.5
20260509041517 12 360 9.7 19.3 0.00 0.00 0.00 34 1003.7
20260509040048 12 360 8.0 14.5 0.00 0.00 0.00 32 1003.8
20260509034510 12 360 9.7 22.5 0.00 0.00 0.00 32 1004.2
20260509033049 12 360 6.4 17.7 0.00 0.00 0.00 31 1004.2
20260509031528 12 360 9.7 16.1 0.00 0.00 0.00 31 1004.2
20260509030051 12 360 9.7 17.7 0.00 0.00 0.00 32 1004.4
20260509024525 12 360 9.7 17.7 0.00 0.00 0.00 32 1004.5
20260509023008 12 360 8.0 22.5 0.00 0.00 0.00 34 1004.6
20260509021545 12 360 9.7 17.7 0.00 0.00 0.00 34 1004.6
20260509020010 12 360 8.0 17.7 0.00 0.00 0.00 35 1004.6
20260509014551 12 360 6.4 14.5 0.00 0.00 0.00 36 1004.6
20260509013024 12 360 6.4 14.5 0.00 0.00 0.00 35 1004.6
20260509011506 12 360 6.4 12.9 0.00 0.00 0.00 35 1004.6
20260509010032 12 360 6.4 12.9 0.00 0.00 0.00 34 1004.8
20260509004611 13 360 6.4 16.1 0.00 0.00 0.00 34 1004.7
20260509004501 13 360 8.0 16.1 0.00 0.00 0.00 34 1004.8
20260509003039 13 360 9.7 19.3 0.00 0.00 0.00 32 1004.7
20260509001518 13 360 8.0 14.5 0.00 0.00 0.00 34 1004.8
20260509000036 14 360 12.9 19.3 0.00 0.00 0.00 31 1004.9
20260508234512 13 360 9.7 14.5 0.00 0.00 0.00 33 1005.1
20260508233050 13 360 9.7 16.1 0.00 0.00 0.00 35 1005.3
20260508231526 13 360 11.3 19.3 0.00 0.00 0.00 38 1005.5
20260508230050 13 360 14.5 24.1 0.00 0.00 0.00 38 1005.6
20260508224527 13 360 16.1 25.7 0.00 0.00 0.00 40 1005.8
20260508223017 13 360 14.5 24.1 0.00 0.00 0.00 42 1005.8
20260508221542 13 360 14.5 24.1 0.00 0.00 0.00 41 1005.9
20260508220005 13 360 16.1 25.7 0.00 0.00 0.00 40 1006.1
20260508214551 13 360 16.1 27.4 0.00 0.00 0.00 42 1006.1
20260508213030 13 360 17.7 27.4 0.00 0.00 0.00 40 1006.2
20260508211602 13 360 16.1 30.6 0.00 0.00 0.00 45 1006.3
20260508211503 13 360 16.1 30.6 0.00 0.00 0.00 44 1006.3
20260508210024 12 360 16.1 30.6 0.00 0.00 0.00 46 1006.6
20260508204512 12 360 17.7 32.2 0.00 0.00 0.00 44 1006.8
20260508203045 12 360 19.3 32.2 0.00 0.00 0.00 43 1006.9
20260508201521 13 360 19.3 29.0 0.00 0.00 0.00 42 1007.0
20260508200039 13 360 16.1 30.6 0.00 0.00 0.00 40 1007.1
20260508194516 13 360 19.3 30.6 0.00 0.00 0.00 39 1007.5
20260508193105 13 360 16.1 27.4 0.00 0.00 0.00 39 1007.6
20260508191535 13 17 19.3 27.4 0.00 0.00 0.00 39 1007.9
20260508190053 12 360 19.3 29.0 0.00 0.00 0.00 38 1008.0
20260508184537 13 360 19.3 30.6 0.00 0.00 0.00 42 1008.2
20260508183012 12 360 19.3 29.0 0.00 0.00 0.00 42 1008.4
20260508181558 12 360 19.3 30.6 0.00 0.00 0.00 49 1008.6
20260508180016 12 360 16.1 29.0 0.00 0.00 0.00 51 1008.9
20260508174548 11 360 19.3 30.6 0.00 0.00 0.00 57 1009.1
20260508173024 11 360 19.3 32.2 0.00 0.00 0.00 60 1009.3
20260508171505 11 360 19.3 33.8 0.00 0.00 0.00 60 1009.6
20260508170019 11 360 19.3 32.2 0.00 0.00 0.00 63 1009.7
20260508164559 11 360 17.7 32.2 0.00 0.00 0.00 64 1009.9
20260508164501 11 360 19.3 32.2 0.00 0.00 0.00 62 1009.9
20260508163046 11 360 17.7 25.7 0.00 0.00 0.00 61 1010.0
20260508161515 10 360 19.3 29.0 0.00 0.00 0.00 64 1010.0
20260508160056 10 360 17.7 30.6 0.00 0.00 0.00 66 1010.0
20260508154513 10 360 16.1 25.7 0.00 0.00 0.00 63 1009.9
20260508153053 10 360 14.5 24.1 0.00 0.00 0.00 66 1010.1
20260508151528 9 360 19.3 25.7 0.00 0.00 0.00 67 1010.2
20260508150048 10 360 12.9 24.1 0.00 0.00 0.00 67 1010.1
20260508144524 9 360 17.7 25.7 0.00 0.00 0.00 66 1010.2
20260508143006 9 360 16.1 25.7 0.00 0.00 0.00 66 1010.2
20260508141554 10 360 16.1 25.7 0.00 0.00 0.00 64 1010.4
20260508140005 9 360 12.9 20.9 0.00 0.00 0.00 65 1010.2
20260508134542 8 360 17.7 25.7 0.00 0.00 0.00 64 1010.2
20260508133021 8 360 14.5 25.7 0.00 0.00 0.00 66 1010.4
20260508131559 8 360 16.1 29.0 0.00 0.00 0.00 65 1010.4
20260508130017 8 360 16.1 25.7 0.00 0.00 0.00 66 1010.5
20260508124552 7 360 16.1 24.1 0.00 0.00 0.00 68 1010.5
20260508123028 7 360 11.3 22.5 0.00 0.00 0.00 70 1010.4
20260508121530 7 360 14.5 24.1 0.00 0.00 0.00 69 1010.3
20260508120031 6 360 12.9 22.5 0.00 0.00 0.00 68 1010.2
20260508114508 6 360 14.5 22.5 0.00 0.00 0.00 69 1010.1
20260508113046 6 360 11.3 19.3 0.00 0.00 0.00 70 1010.0